DW4719 Vilanova I la Geltru ES current weather conditions

sailwx.info

Wind from 031 at 0 knots

Air temperature 18.9° C
Dewpoint 12.6° C

Last reported at 2017-May-28 22:04 UTC.
Time now 2017-May-28 22:25 UTC

Location: N 41°13' E 001°44'.
View on Google Maps.

See reports from other nearby stations

  
Tides and Currents Weather Stations Pressure Air Temp Water Temp Dewpoint Dewpoint Depression Visibility Wind Speed Wind Dir Waves Ship Positions
date/time (UTC)wind fromknots sea level pressurealtimeterstation pressurevisibilityair tempwater tempwave heightnotes
2017-May-28 22:09 032 0 18.9
2017-May-28 22:04 031 0 18.9
2017-May-28 21:59 031 18.9
2017-May-28 21:54 028 18.9
2017-May-28 21:49 360 0 18.9
2017-May-28 21:44 360 1 18.9
2017-May-28 21:39 013 1 19.4
2017-May-28 21:34 007 0 19.4
2017-May-28 21:29 030 0 19.4
2017-May-28 21:24 085 0 19.4
2017-May-28 21:19 085 0 19.4
2017-May-28 21:14 017 0 20.0
2017-May-28 21:09 017 0 20.0
2017-May-28 21:04 016 0 20.0
2017-May-28 20:59 016 0 19.4
2017-May-28 20:54 016 0 19.4
2017-May-28 20:49 016 0 20.0
2017-May-28 20:44 003 0 20.0
2017-May-28 20:34 006 0 20.0
2017-May-28 20:29 006 1 20.0
2017-May-28 20:24 006 0 20.0
2017-May-28 20:19 016 0 20.6
2017-May-28 20:14 073 0 20.6
2017-May-28 20:09 096 0 20.6
2017-May-28 20:04 097 0 20.6
2017-May-28 19:59 128 20.6
2017-May-28 19:54 121 20.6
2017-May-28 19:49 121 21.1
2017-May-28 19:44 120 21.1
2017-May-28 19:39 123 0 21.1
2017-May-28 19:34 123 0 21.1
2017-May-28 19:29 124 0 21.1
2017-May-28 19:24 110 0 21.1
2017-May-28 19:19 109 1 21.1
2017-May-28 19:14 112 1 21.1
2017-May-28 19:09 107 1 21.1
2017-May-28 19:04 117 1 21.1
2017-May-28 18:59 138 1 21.7
2017-May-28 18:54 119 1 21.7
2017-May-28 18:49 174 1 21.7
2017-May-28 18:44 137 1 21.7
2017-May-28 18:39 130 1 22.2
2017-May-28 18:34 090 0 22.2
2017-May-28 18:29 126 0 22.2
2017-May-28 18:24 025 0 22.2
2017-May-28 18:19 099 0 22.2
2017-May-28 18:14 162 1 22.2
2017-May-28 18:09 179 1 22.2
2017-May-28 18:04 102 1 22.2
2017-May-28 17:59 124 2 22.2
2017-May-28 17:54 171 2 22.2
2017-May-28 17:49 109 2 22.2
2017-May-28 17:44 120 2 22.8
2017-May-28 17:39 145 2 22.8
2017-May-28 17:34 200 2 22.2
2017-May-28 17:29 184 1 22.8
2017-May-28 17:24 158 1 22.8
2017-May-28 17:19 202 1 22.8
2017-May-28 17:14 148 1 22.8
2017-May-28 17:09 162 2 22.8
2017-May-28 17:04 229 1 22.8
2017-May-28 16:59 172 1 22.8
2017-May-28 16:54 160 1 22.2
2017-May-28 16:49 168 2 22.2
2017-May-28 16:44 109 3 22.2
2017-May-28 16:39 128 3 22.2
2017-May-28 16:34 181 3 22.2
2017-May-28 16:29 134 3 22.2
2017-May-28 16:24 206 4 22.2
2017-May-28 16:19 203 4 22.2
2017-May-28 16:14 171 4 21.7
2017-May-28 16:09 144 4 21.7
2017-May-28 16:04 167 4 21.7
2017-May-28 15:59 178 4 21.7
2017-May-28 15:54 141 4 22.2
2017-May-28 15:49 178 3 22.2
2017-May-28 15:44 145 3 22.2
2017-May-28 15:39 185 3 22.2
2017-May-28 15:34 203 3 21.7
2017-May-28 15:29 158 2 22.2
2017-May-28 15:24 157 2 22.8
2017-May-28 15:19 206 2 22.8
2017-May-28 15:14 141 3 22.2
2017-May-28 15:09 162 3 22.2
2017-May-28 15:04 161 2 22.8
2017-May-28 14:59 137 2 22.8
2017-May-28 14:54 206 2 22.8
2017-May-28 14:49 130 3 22.2
2017-May-28 14:44 158 3 22.2
2017-May-28 14:39 155 3 22.2
2017-May-28 14:34 155 2 22.2
2017-May-28 14:29 188 2 22.2
2017-May-28 14:24 234 2 22.2
2017-May-28 14:19 258 3 22.2
2017-May-28 14:14 209 3 21.7
2017-May-28 14:09 196 3 22.2
2017-May-28 14:04 229 4 22.2
2017-May-28 13:59 157 4 22.2
2017-May-28 13:54 186 3 22.2
2017-May-28 13:49 158 4 22.2
2017-May-28 13:44 198 4 22.2
2017-May-28 13:39 175 4 22.2
2017-May-28 13:34 186 4 22.2
2017-May-28 13:29 205 3 22.2
2017-May-28 13:24 251 2 22.2
2017-May-28 13:19 208 2 22.2
2017-May-28 13:14 147 3 21.7
2017-May-28 13:09 165 2 21.7
2017-May-28 13:04 210 3 21.7
2017-May-28 12:59 172 2 21.7
2017-May-28 12:54 152 2 22.2
2017-May-28 12:49 209 2 22.2
2017-May-28 12:44 239 2 21.7
2017-May-28 12:39 200 2 22.2
2017-May-28 12:34 155 2 21.7
2017-May-28 12:29 213 2 21.7
2017-May-28 12:24 167 3 21.1
2017-May-28 12:19 160 4 21.1
2017-May-28 12:14 169 2 21.1
2017-May-28 12:09 123 2 21.1
2017-May-28 12:04 161 3 21.1
2017-May-28 11:59 164 3 21.1
2017-May-28 11:54 140 3 20.6
2017-May-28 11:49 167 3 20.6
2017-May-28 11:44 154 2 20.6
2017-May-28 11:39 161 3 20.0
2017-May-28 11:34 151 3 20.0
2017-May-28 11:29 169 4 20.0
2017-May-28 11:24 179 3 20.0
2017-May-28 11:19 191 3 20.0
2017-May-28 11:14 198 3 20.0
2017-May-28 11:09 133 3 20.0
2017-May-28 11:04 143 4 20.0
2017-May-28 10:59 165 4 20.0
2017-May-28 10:54 189 4 20.0
2017-May-28 10:49 157 5 20.0
2017-May-28 10:44 175 6 20.0
2017-May-28 10:39 178 6 20.0
2017-May-28 10:34 157 5 20.6
2017-May-28 10:29 128 6 20.6
2017-May-28 10:24 162 6 20.6
2017-May-28 10:19 172 6 20.6
2017-May-28 10:14 171 6 20.6
2017-May-28 10:09 171 6 21.1
2017-May-28 10:04 178 6 21.1
2017-May-28 09:59 186 6 21.1
2017-May-28 09:54 178 5 21.1
2017-May-28 09:49 185 5 21.7
2017-May-28 09:44 178 5 21.7
2017-May-28 09:39 179 4 21.7
2017-May-28 09:34 140 5 22.2
2017-May-28 09:29 191 4 22.2
2017-May-28 09:24 176 5 22.2
2017-May-28 09:19 212 5 22.2
2017-May-28 09:14 172 5 22.8
2017-May-28 09:09 189 4 22.8
2017-May-28 09:04 168 3 23.3
2017-May-28 08:59 121 4 23.3
2017-May-28 08:54 164 4 23.3
2017-May-28 08:49 154 3 23.3
2017-May-28 08:44 210 3 23.3
2017-May-28 08:39 148 3 23.3
2017-May-28 08:34 208 3 23.3
2017-May-28 08:29 165 3 23.3
2017-May-28 08:24 161 3 23.3
2017-May-28 08:19 184 2 23.3
2017-May-28 08:14 157 3 23.3
2017-May-28 08:09 157 3 23.3
2017-May-28 08:04 175 3 23.3
2017-May-28 07:59 164 3 23.3
2017-May-28 07:54 158 3 23.3
2017-May-28 07:49 157 2 23.3
2017-May-28 07:44 178 1 23.3
2017-May-28 07:39 179 2 23.3
2017-May-28 07:34 150 2 22.8
2017-May-28 07:29 154 1 22.8
2017-May-28 07:24 152 1 22.8
2017-May-28 07:19 138 1 22.8
2017-May-28 07:14 145 3 22.2
2017-May-28 07:09 188 2 22.2
2017-May-28 07:04 179 1 22.8
2017-May-28 06:59 145 0 22.2
2017-May-28 06:54 090 0 22.2
2017-May-28 06:49 124 0 21.7
2017-May-28 06:44 083 0 21.1
2017-May-28 06:39 086 0 21.1
2017-May-28 06:34 104 0 20.6
2017-May-28 06:29 112 0 20.6
2017-May-28 06:24 049 1 20.0
2017-May-28 06:19 072 1 19.4
2017-May-28 06:14 096 1 19.4
2017-May-28 06:09 072 2 18.9
2017-May-28 06:04 079 2 18.9
2017-May-28 05:59 102 1 18.9
2017-May-28 05:54 088 0 18.9
2017-May-28 05:49 089 1 18.3
2017-May-28 05:44 068 1 18.3
2017-May-28 05:39 090 1 17.8
2017-May-28 05:34 066 1 17.8
2017-May-28 05:29 071 0 17.2
2017-May-28 05:24 100 0 17.2
2017-May-28 05:19 083 1 17.2
2017-May-28 05:14 069 1 16.7
2017-May-28 05:09 072 1 16.7
2017-May-28 05:04 065 1 16.7
2017-May-28 04:59 041 2 16.7
2017-May-28 04:54 082 2 16.7
2017-May-28 04:49 082 1 16.7
2017-May-28 04:44 103 1 16.7
2017-May-28 04:39 071 1 16.7
2017-May-28 04:34 055 2 16.7
2017-May-28 04:29 069 2 16.7
2017-May-28 04:24 082 1 16.7
2017-May-28 04:19 083 1 16.7
2017-May-28 04:14 073 1 16.7
2017-May-28 04:09 109 1 16.7
2017-May-28 04:04 085 1 16.7
2017-May-28 03:59 083 1 16.7
2017-May-28 03:54 096 0 16.7
2017-May-28 03:49 073 1 16.7
2017-May-28 03:44 049 1 16.7
2017-May-28 03:39 044 1 16.7
2017-May-28 03:34 073 1 16.7
2017-May-28 03:29 090 0 16.7
2017-May-28 03:24 051 0 16.7
2017-May-28 03:19 090 1 16.7
2017-May-28 03:14 068 1 16.7
2017-May-28 03:09 079 1 16.7
2017-May-28 03:04 097 1 16.7
2017-May-28 02:59 080 0 16.7
2017-May-28 02:54 041 0 16.7
2017-May-28 02:49 072 0 17.2
2017-May-28 02:44 078 1 17.2
2017-May-28 02:39 069 0 17.2
2017-May-28 02:34 040 0 17.2
2017-May-28 02:29 014 0 17.2
2017-May-28 02:14 083 0 17.2
2017-May-28 02:09 071 0 17.2
2017-May-28 02:04 037 1 17.2
2017-May-28 01:59 071 1 17.2
2017-May-28 01:54 073 2 17.2
2017-May-28 01:49 061 2 17.2
2017-May-28 01:44 075 2 17.2
2017-May-28 01:39 076 3 17.2
2017-May-28 01:34 090 3 17.2
2017-May-28 01:29 071 3 17.2
2017-May-28 01:24 054 2 17.2
2017-May-28 01:19 083 1 17.2
2017-May-28 01:14 110 1 17.8
2017-May-28 01:09 090 1 17.8
2017-May-28 01:04 076 1 17.8
2017-May-28 00:59 116 0 17.8
2017-May-28 00:54 065 0 17.8
2017-May-28 00:49 040 0 17.8
2017-May-28 00:44 086 0 17.8
2017-May-28 00:40 086 0 17.8
2017-May-28 00:34 062 0 17.8
2017-May-28 00:29 078 0 17.8
2017-May-28 00:24 071 0 17.8
2017-May-28 00:19 079 0 17.8
2017-May-28 00:14 079 0 17.8
2017-May-28 00:10 090 0 17.8
2017-May-28 00:04 065 0 17.8
2017-May-28 00:00 097 0 17.8
2017-May-27 23:54 083 0 17.8
2017-May-27 23:49 071 1 18.3
2017-May-27 23:44 075 1 18.3
2017-May-27 23:39 095 1 18.3
2017-May-27 23:34 058 1 18.3
2017-May-27 23:29 080 1 18.3
2017-May-27 23:25 065 1 18.3
2017-May-27 23:19 075 1 18.3
2017-May-27 23:14 088 1 18.3
2017-May-27 23:09 071 1 18.3
2017-May-27 23:04 072 1 18.3
2017-May-27 22:59 069 1 18.3
2017-May-27 22:54 103 0 18.3
2017-May-27 22:49 080 0 18.3
2017-May-27 22:44 080 0 18.3
2017-May-27 22:39 080 0 18.3
2017-May-27 22:34 038 18.9
2017-May-27 22:30 038 18.9
2017-May-27 22:25 038 0 18.9
2017-May-27 22:19 038 18.9
2017-May-27 22:14 040 18.9
2017-May-27 22:09 040 18.9
2017-May-27 22:04 037 0 18.9
2017-May-27 21:59 037 0 18.9
2017-May-27 21:54 037 0 18.9
2017-May-27 21:49 037 0 18.9
2017-May-27 21:44 038 0 18.9
2017-May-27 21:39 042 0 18.9
2017-May-27 21:34 117 0 19.4
2017-May-27 21:29 119 0 19.4
2017-May-27 21:24 117 19.4
2017-May-27 21:19 119 19.4
2017-May-27 21:14 119 19.4
2017-May-27 21:09 120 20.0
2017-May-27 21:04 120 0 20.0
2017-May-27 20:59 120 0 20.0
2017-May-27 20:55 119 1 20.0
2017-May-27 20:49 112 1 20.0
2017-May-27 20:44 096 1 20.0
2017-May-27 20:39 112 1 20.0
2017-May-27 20:34 136 1 20.0
2017-May-27 20:29 120 1 20.0
2017-May-27 20:24 133 1 20.0
2017-May-27 20:19 126 1 20.0
2017-May-27 20:14 102 1 20.0
2017-May-27 20:09 099 1 20.0
2017-May-27 20:04 117 1 20.0
2017-May-27 19:59 140 1 20.6
2017-May-27 19:55 120 1 20.6
2017-May-27 19:49 137 1 20.6
2017-May-27 19:44 131 1 20.6
2017-May-27 19:39 130 2 20.6
2017-May-27 19:34 130 2 20.6
2017-May-27 19:29 107 1 20.6
2017-May-27 19:24 121 1 20.6
2017-May-27 19:19 127 1 20.6
2017-May-27 19:14 123 1 20.6
2017-May-27 19:09 151 2 20.6
2017-May-27 19:04 121 2 20.6
2017-May-27 18:59 113 2 20.6
2017-May-27 18:54 103 1 20.6
2017-May-27 18:49 109 1 21.1
2017-May-27 18:44 119 1 21.1
2017-May-27 18:39 157 1 21.1
2017-May-27 18:34 137 2 20.6
2017-May-27 18:29 165 2 21.1
2017-May-27 18:24 123 2 21.1
2017-May-27 18:19 138 3 21.1
2017-May-27 18:14 130 3 21.1
2017-May-27 18:09 141 2 21.1
2017-May-27 18:04 144 3 21.1
2017-May-27 17:59 154 2 21.1
2017-May-27 17:54 157 2 21.1
2017-May-27 17:49 131 2 21.1
2017-May-27 17:45 160 3 21.1
2017-May-27 17:39 164 4 21.1
2017-May-27 17:34 109 4 21.1
2017-May-27 17:29 121 3 21.1
2017-May-27 17:24 113 2 21.1
2017-May-27 17:20 107 2 21.1
2017-May-27 17:14 154 2 21.1
2017-May-27 17:09 119 3 21.1
2017-May-27 17:04 174 3 21.1
2017-May-27 16:59 155 2 21.1
2017-May-27 16:54 148 2 21.1
2017-May-27 16:49 086 4 21.1
2017-May-27 16:44 208 4 21.1
2017-May-27 16:39 203 5 21.1
2017-May-27 16:34 188 5 21.1
2017-May-27 16:29 164 5 21.1
2017-May-27 16:24 133 5 21.1
2017-May-27 16:19 176 5 21.1
2017-May-27 16:14 164 5 21.1
2017-May-27 16:10 123 4 21.7
2017-May-27 16:04 181 4 21.7
2017-May-27 15:59 128 4 21.7
2017-May-27 15:54 099 4 21.7
2017-May-27 15:49 143 4 21.7
2017-May-27 15:44 124 4 21.7
2017-May-27 15:40 164 4 21.7
2017-May-27 15:34 162 4 21.7
2017-May-27 15:29 165 4 21.7
2017-May-27 15:24 140 5 21.7
2017-May-27 15:19 138 5 21.7
2017-May-27 15:15 172 5 21.7
2017-May-27 15:09 172 5 21.7
2017-May-27 15:04 141 6 21.7
2017-May-27 14:59 114 6 21.7
2017-May-27 14:54 202 6 21.7
2017-May-27 14:49 144 6 21.7
2017-May-27 14:44 174 6 21.7
2017-May-27 14:40 120 6 21.7
2017-May-27 14:34 165 6 22.2
2017-May-27 14:29 131 6 22.2
2017-May-27 14:24 192 6 22.2
2017-May-27 14:19 150 6 22.2
2017-May-27 14:14 157 6 22.2
2017-May-27 14:09 155 6 22.2
2017-May-27 14:04 158 6 22.2
2017-May-27 13:59 143 6 22.2
2017-May-27 13:54 134 6 22.2
2017-May-27 13:49 184 5 22.8
2017-May-27 13:44 222 5 22.8
2017-May-27 13:39 150 6 22.8
2017-May-27 13:34 114 6 22.2
2017-May-27 13:29 195 6 22.8
2017-May-27 13:24 169 6 22.8
2017-May-27 13:19 199 6 22.8
2017-May-27 13:14 078 5 22.8
2017-May-27 13:09 165 5 22.8
2017-May-27 13:04 171 5 22.8
2017-May-27 12:59 167 6 22.2
2017-May-27 12:54 133 5 22.2
2017-May-27 12:49 130 4 22.8
2017-May-27 12:44 155 5 22.2
2017-May-27 12:39 175 6 22.2
2017-May-27 12:34 174 7 22.2
2017-May-27 12:29 131 6 22.2
2017-May-27 12:24 144 6 22.2
2017-May-27 12:19 144 6 22.8
2017-May-27 12:14 179 6 22.8
2017-May-27 12:09 165 5 23.3
2017-May-27 12:04 167 5 23.3
2017-May-27 11:59 138 5 23.3
2017-May-27 11:54 152 5 23.3
2017-May-27 11:49 165 6 22.8
2017-May-27 11:44 178 6 22.8
2017-May-27 11:39 114 6 22.8
2017-May-27 11:34 193 6 22.8
2017-May-27 11:29 160 6 22.8
2017-May-27 11:24 178 6 22.8
2017-May-27 11:19 176 6 22.8
2017-May-27 11:14 112 6 22.8
2017-May-27 11:09 184 6 22.8
2017-May-27 11:04 179 6 22.8
2017-May-27 10:59 161 5 22.8
2017-May-27 10:54 185 5 22.8
2017-May-27 10:49 150 6 22.8
2017-May-27 10:44 164 6 22.2
2017-May-27 10:39 147 6 22.8
2017-May-27 10:34 131 6 22.8
2017-May-27 10:29 168 6 22.8
2017-May-27 10:24 172 5 22.8
2017-May-27 10:19 120 6 22.8
2017-May-27 10:15 123 6 22.8
2017-May-27 10:09 055 7 22.2
2017-May-27 10:04 126 6 22.2
2017-May-27 09:59 127 6 22.2
2017-May-27 09:54 121 7 22.2
2017-May-27 09:49 097 6 22.2
2017-May-27 09:45 147 6 22.2
2017-May-27 09:39 147 7 22.2
2017-May-27 09:34 168 7 22.2
2017-May-27 09:29 172 6 22.2
2017-May-27 09:25 133 6 22.2
2017-May-27 09:19 148 6 22.2
2017-May-27 09:14 123 7 22.2
2017-May-27 09:09 168 6 22.2
2017-May-27 09:04 167 6 22.2
2017-May-27 08:59 189 6 22.8
2017-May-27 08:54 148 6 22.2
2017-May-27 08:49 124 6 22.2
2017-May-27 08:44 158 6 22.2
2017-May-27 08:39 128 6 22.2
2017-May-27 08:34 137 6 22.2
2017-May-27 08:29 106 5 22.8
2017-May-27 08:24 158 5 22.8
2017-May-27 08:19 188 4 22.8
2017-May-27 08:14 158 4 22.8
2017-May-27 08:09 181 5 22.8
2017-May-27 08:04 195 4 22.8
2017-May-27 07:59 193 2 22.8
2017-May-27 07:43 072 1 22.2
2017-May-27 07:39 152 1 21.7
2017-May-27 07:34 175 1 21.7
2017-May-27 07:29 150 1 21.7
2017-May-27 07:24 095 2 21.7
2017-May-27 07:20 093 2 21.7
2017-May-27 07:13 075 2 21.1
2017-May-27 07:09 143 2 21.1
2017-May-27 07:04 124 2 21.1
2017-May-27 06:59 346 2 21.1
2017-May-27 06:54 141 2 21.1
2017-May-27 06:49 136 2 21.1
2017-May-27 06:44 104 2 20.6
2017-May-27 06:39 083 3 20.6
2017-May-27 06:34 128 2 20.6
2017-May-27 06:29 056 2 20.6
2017-May-27 06:24 110 2 20.0
2017-May-27 06:19 128 3 20.0
2017-May-27 06:14 130 3 20.0
2017-May-27 06:09 126 2 20.0
2017-May-27 06:04 120 3 20.0
2017-May-27 05:59 103 2 19.4
2017-May-27 05:54 103 2 19.4
2017-May-27 05:49 143 2 19.4
2017-May-27 05:44 073 0 19.4
2017-May-27 05:40 128 0 19.4
2017-May-27 05:34 092 1 18.9
2017-May-27 05:29 042 2 18.9
2017-May-27 05:24 347 1 18.9
2017-May-27 05:19 340 1 18.9
2017-May-27 05:14 049 1 18.9
2017-May-27 05:10 328 1 18.9
2017-May-27 05:04 088 0 18.9
2017-May-27 04:59 080 0 18.9
2017-May-27 04:54 088 1 18.9
2017-May-27 04:49 085 1 18.9
2017-May-27 04:44 095 1 18.9
2017-May-27 04:39 102 0 18.9
2017-May-27 04:34 099 0 18.9
2017-May-27 04:29 360 0 18.9
2017-May-27 04:24 350 0 18.9
2017-May-27 04:19 350 0 18.9
2017-May-27 04:14 350 0 18.9
2017-May-27 04:09 347 0 18.9
2017-May-27 04:04 347 0 18.9
2017-May-27 03:59 337 1 18.9
2017-May-27 03:54 336 1 18.9
2017-May-27 03:49 336 0 18.9
2017-May-27 03:44 349 0 18.9
2017-May-27 03:39 326 1 18.9
2017-May-27 03:34 333 1 18.9
2017-May-27 03:29 318 0 18.3
2017-May-27 03:24 360 0 18.9
2017-May-27 03:19 360 0 18.3
2017-May-27 03:14 329 0 18.3
2017-May-27 03:09 330 0 18.3
2017-May-27 03:04 059 0 18.3
2017-May-27 02:59 058 18.3
2017-May-27 02:54 071 18.3
2017-May-27 02:49 069 18.3
2017-May-27 02:44 068 18.3
2017-May-27 02:39 066 0 18.3
2017-May-27 02:34 117 18.3
2017-May-27 02:29 117 0 18.3
2017-May-27 02:24 120 1 18.3
2017-May-27 02:19 112 1 18.3
2017-May-27 02:14 107 0 18.3
2017-May-27 02:09 106 0 18.3
2017-May-27 02:04 059 0 18.3
2017-May-27 01:59 059 18.3
2017-May-27 01:54 062 18.3
2017-May-27 01:49 061 0 18.3
2017-May-27 01:44 102 0 18.3
2017-May-27 01:39 102 0 18.3
2017-May-27 01:34 102 0 17.8
2017-May-27 01:30 082 0 17.8
2017-May-27 01:25 020 0 17.8
2017-May-27 01:19 016 17.8
2017-May-27 01:14 352 17.8
2017-May-27 01:09 352 0 17.8
2017-May-27 01:04 352 0 17.8
2017-May-27 00:59 006 17.8
2017-May-27 00:54 103 17.2
2017-May-27 00:49 103 0 17.2
2017-May-27 00:44 103 0 17.8
2017-May-27 00:39 103 0 17.8
2017-May-27 00:34 104 0 17.8
2017-May-27 00:29 103 0 17.8
2017-May-27 00:24 103 0 17.8
2017-May-27 00:19 102 1 17.8
2017-May-27 00:14 102 0 17.8
2017-May-27 00:09 117 18.3
2017-May-27 00:04 116 18.3
2017-May-26 23:59 117 18.3
2017-May-26 23:54 117 0 18.3
2017-May-26 23:49 117 0 18.3
2017-May-26 23:44 119 1 18.3
2017-May-26 23:39 119 1 17.8
2017-May-26 23:34 123 0 17.8
2017-May-26 23:30 124 0 17.8
2017-May-26 23:24 090 17.8
2017-May-26 23:19 089 0 17.8
2017-May-26 23:14 100 0 18.3
2017-May-26 23:09 102 18.3
2017-May-26 23:04 104 18.3
2017-May-26 22:59 100 18.3
2017-May-26 22:55 104 0 18.3
2017-May-26 22:49 088 0 18.3
2017-May-26 22:44 123 0 18.3
2017-May-26 22:39 161 0 18.9
2017-May-26 22:34 195 1 18.9
2017-May-26 22:30 150 1 18.9
2017-May-26 22:24 198 2 18.9
2017-May-26 22:19 164 2 18.9
2017-May-26 22:14 151 2 18.9
2017-May-26 22:09 144 3 18.9
2017-May-26 22:04 165 3 18.9